Asheville, NC

6:26 AM EDT on March 28, 2017 (GMT -0400)
Asheville Regional

Weather History for KAVL - March, 2010

Change the Weather History Date:

Tuesday, March 23, 2010

  Actual Average Record
Temperature  
Mean Temperature 45 °F 49 °F  
Max Temperature 59 °F 61 °F 85 °F (1907)
Min Temperature 31 °F 37 °F 18 °F (2004)
Degree Days  
Heating Degree Days 20 16  
Month to date heating degree days 487 434  
Since 1 July heating degree days 4067 3651  
Cooling Degree Days 0 0  
Month to date cooling degree days 0 0  
Year to date cooling degree days 0 0  
Moisture  
Dew Point 32 °F    
Average Humidity 62    
Maximum Humidity 92    
Minimum Humidity 31    
Precipitation  
Precipitation 0.00 in 0.13 in 2.38 in (1979)
Month to date precipitation 3.40 2.83  
Year to date precipitation 13.75 10.26  
Snow  
Snow 0.00 in 0.10 in 0.30 in (1970)
Month to date snowfall 9.8 1.5  
Since 1 July snowfall 39.2 8.8  
Snow Depth 0.00 in    
Sea Level Pressure  
Sea Level Pressure 29.89 in    
Wind  
Wind Speed 9 mph (NNW)    
Max Wind Speed 17 mph    
Max Gust Speed 24 mph    
Visibility 10 miles    
Events      
T = Trace of Precipitation, MM = Missing Value Source: NWS Daily Summary

Daily Weather History Graph

Daily Weather History Graph

Search for Another Location

Airport or City:

Trip Planner

Search our weather history database for the weather conditions in past years. The results will help you decide how hot, cold, wet, or windy it might be!

Date:

Astronomy

Mar. 23, 2010 Rise Set
Actual Time 7:29 AM EDT 7:44 PM EDT
Civil Twilight 7:04 AM EDT 8:09 PM EDT
Nautical Twilight 6:34 AM EDT 8:39 PM EDT
Astronomical Twilight 6:04 AM EDT 9:09 PM EDT
Moon 12:38 PM EDT (3/23) 2:45 AM EDT (3/23)
Length of Visible Light 13h 05m
Length of Day
12h 14m
First Quarter, 52% of the Moon is Illuminated
Mar 23
First Quarter
Mar 29
Full
Apr 6
Last Quarter
Apr 14
New
Apr 21
First Quarter

Hourly Weather History & Observations

Time (EDT) Temp. Windchill Dew Point Humidity Pressure Visibility Wind Dir Wind Speed Gust Speed Precip Events Conditions
12:54 AM 32.0 °F - 30.0 °F 92% 29.81 in 10.0 mi Calm Calm - N/A   Mostly Cloudy
1:54 AM 33.1 °F 26.9 °F 30.0 °F 89% 29.83 in 10.0 mi North 6.9 mph - N/A   Mostly Cloudy
2:54 AM 32.0 °F 24.2 °F 28.9 °F 88% 29.81 in 10.0 mi NNW 9.2 mph - N/A   Clear
3:54 AM 32.0 °F 26.4 °F 28.9 °F 88% 29.81 in 10.0 mi NW 5.8 mph - N/A   Clear
4:54 AM 32.0 °F 24.8 °F 28.9 °F 88% 29.81 in 10.0 mi NNW 8.1 mph - N/A   Clear
5:54 AM 32.0 °F 23.6 °F 28.0 °F 85% 29.82 in 10.0 mi NNW 10.4 mph - N/A   Partly Cloudy
6:54 AM 32.0 °F 23.0 °F 28.0 °F 85% 29.83 in 10.0 mi NNW 11.5 mph - N/A   Mostly Cloudy
7:54 AM 32.0 °F 24.8 °F 28.0 °F 85% 29.84 in 10.0 mi NNW 8.1 mph - N/A   Overcast
8:54 AM 34.0 °F 26.6 °F 30.0 °F 85% 29.86 in 10.0 mi NNW 9.2 mph - N/A   Scattered Clouds
9:54 AM 37.0 °F 29.8 °F 32.0 °F 82% 29.88 in 10.0 mi NNW 10.4 mph - N/A   Overcast
10:08 AM 37.4 °F 30.3 °F 32.0 °F 81% 29.85 in 10.0 mi NNW 10.4 mph - N/A   Overcast
10:54 AM 39.0 °F 31.8 °F 34.0 °F 82% 29.88 in 10.0 mi NNW 11.5 mph - N/A   Overcast
11:01 AM 39.2 °F 32.5 °F 33.8 °F 81% 29.87 in 10.0 mi NNW 10.4 mph - N/A   Overcast
11:54 AM 41.0 °F 34.7 °F 36.0 °F 82% 29.91 in 10.0 mi North 10.4 mph - N/A   Overcast
12:20 PM 42.8 °F 38.6 °F 37.4 °F 81% 29.89 in 10.0 mi North 6.9 mph - N/A   Overcast
12:54 PM 46.9 °F - 37.9 °F 71% 29.91 in 10.0 mi North 8.1 mph - N/A   Overcast
1:54 PM 52.0 °F - 37.9 °F 59% 29.90 in 10.0 mi North 11.5 mph 19.6 mph N/A   Clear
2:54 PM 54.0 °F - 37.9 °F 55% 29.90 in 10.0 mi North 8.1 mph 17.3 mph N/A   Clear
3:54 PM 55.9 °F - 37.9 °F 51% 29.89 in 10.0 mi NE 8.1 mph - N/A   Clear
4:54 PM 59.0 °F - 34.0 °F 39% 29.90 in 10.0 mi NNW 17.3 mph 23.0 mph N/A   Clear
5:54 PM 59.0 °F - 28.9 °F 32% 29.91 in 10.0 mi North 13.8 mph - N/A   Clear
6:54 PM 57.0 °F - 28.0 °F 33% 29.93 in 10.0 mi North 11.5 mph 20.7 mph N/A   Clear
7:54 PM 54.0 °F - 30.0 °F 40% 29.96 in 10.0 mi North 8.1 mph - N/A   Clear
8:54 PM 48.0 °F - 33.1 °F 56% 29.98 in 10.0 mi NNW 8.1 mph - N/A   Clear
9:54 PM 46.0 °F 42.5 °F 33.1 °F 61% 30.01 in 10.0 mi NW 6.9 mph - N/A   Clear
10:54 PM 46.9 °F - 33.1 °F 59% 30.01 in 10.0 mi North 3.5 mph - N/A   Clear
11:54 PM 46.4 °F 44.3 °F 33.8 °F 62% 30.03 in 10.0 mi NNW 4.6 mph - N/A   Clear